Date_Time,Julian_Date,Latitude,Longitude,Instrument_Depth,U,V,Speed,Direction
(yyyy-mm-dd hh:mn:ss UTC),(JD),(+ deg. North),(+ deg. East),(m),(cm/s),(cm/s),(cm/s),(deg True)
1983-03-11 18:30:00 UTC,2445405.270833,29.6650,-93.4789,0037,-11.03,8.62,14.0000,308.0000
1983-03-11 19:00:00 UTC,2445405.291667,29.6650,-93.4789,0037,-9.55,10.24,14.0000,317.0000
1983-03-11 19:30:00 UTC,2445405.312500,29.6650,-93.4789,0037,-7.55,9.33,12.0000,321.0000
1983-03-11 20:00:00 UTC,2445405.333333,29.6650,-93.4789,0037,-8.92,8.03,12.0000,312.0000
1983-03-11 20:30:00 UTC,2445405.354167,29.6650,-93.4789,0037,-10.38,7.82,13.0000,307.0000
1983-03-11 21:00:00 UTC,2445405.375000,29.6650,-93.4789,0037,-11.15,10.04,15.0000,312.0000
1983-03-11 21:30:00 UTC,2445405.395833,29.6650,-93.4789,0037,-9.73,10.07,14.0000,316.0000
1983-03-11 22:00:00 UTC,2445405.416667,29.6650,-93.4789,0037,-7.91,7.64,11.0000,314.0000
1983-03-11 22:30:00 UTC,2445405.437500,29.6650,-93.4789,0037,-5.79,6.89,9.0000,320.0000
1983-03-11 23:00:00 UTC,2445405.458333,29.6650,-93.4789,0037,-0.87,4.92,5.0000,350.0000
1983-03-11 23:30:00 UTC,2445405.479167,29.6650,-93.4789,0037,2.94,0.57,3.0000,79.0000
1983-03-12 00:00:00 UTC,2445405.500000,29.6650,-93.4789,0037,4.53,-3.94,6.0000,131.0000
1983-03-12 00:30:00 UTC,2445405.520833,29.6650,-93.4789,0037,3.81,-5.87,7.0000,147.0000
1983-03-12 01:00:00 UTC,2445405.541667,29.6650,-93.4789,0037,3.61,-6.00,7.0000,149.0000
1983-03-12 01:30:00 UTC,2445405.562500,29.6650,-93.4789,0037,4.70,-6.47,8.0000,144.0000
1983-03-12 02:00:00 UTC,2445405.583333,29.6650,-93.4789,0037,5.35,-5.95,8.0000,138.0000
1983-03-12 02:30:00 UTC,2445405.604167,29.6650,-93.4789,0037,6.00,-3.61,7.0000,121.0000
1983-03-12 03:00:00 UTC,2445405.625000,29.6650,-93.4789,0037,6.82,-1.57,7.0000,103.0000
1983-03-12 03:30:00 UTC,2445405.645833,29.6650,-93.4789,0037,5.89,-1.14,6.0000,101.0000
1983-03-12 04:00:00 UTC,2445405.666667,29.6650,-93.4789,0037,5.93,-0.94,6.0000,99.0000
1983-03-12 04:30:00 UTC,2445405.687500,29.6650,-93.4789,0037,5.98,-0.52,6.0000,95.0000
1983-03-12 05:00:00 UTC,2445405.708333,29.6650,-93.4789,0037,6.00,-0.21,6.0000,92.0000
1983-03-12 05:30:00 UTC,2445405.729167,29.6650,-93.4789,0037,6.00,0.00,6.0000,90.0000
1983-03-12 06:00:00 UTC,2445405.750000,29.6650,-93.4789,0037,5.97,0.63,6.0000,84.0000
1983-03-12 06:30:00 UTC,2445405.770833,29.6650,-93.4789,0037,5.80,1.55,6.0000,75.0000
1983-03-12 07:00:00 UTC,2445405.791667,29.6650,-93.4789,0037,6.66,2.16,7.0000,72.0000
1983-03-12 07:30:00 UTC,2445405.812500,29.6650,-93.4789,0037,6.85,1.46,7.0000,78.0000
1983-03-12 08:00:00 UTC,2445405.833333,29.6650,-93.4789,0037,7.98,0.56,8.0000,86.0000
1983-03-12 08:30:00 UTC,2445405.854167,29.6650,-93.4789,0037,8.98,0.63,9.0000,86.0000
1983-03-12 09:00:00 UTC,2445405.875000,29.6650,-93.4789,0037,9.93,1.22,10.0000,83.0000
1983-03-12 09:30:00 UTC,2445405.895833,29.6650,-93.4789,0037,11.95,1.05,12.0000,85.0000
1983-03-12 10:00:00 UTC,2445405.916667,29.6650,-93.4789,0037,14.00,-0.24,14.0000,91.0000
1983-03-12 10:30:00 UTC,2445405.937500,29.6650,-93.4789,0037,13.90,-1.71,14.0000,97.0000
1983-03-12 11:00:00 UTC,2445405.958333,29.6650,-93.4789,0037,12.72,-2.70,13.0000,102.0000
1983-03-12 11:30:00 UTC,2445405.979167,29.6650,-93.4789,0037,10.63,-2.85,11.0000,105.0000
1983-03-12 12:00:00 UTC,2445406.000000,29.6650,-93.4789,0037,10.72,-2.47,11.0000,103.0000
1983-03-12 12:30:00 UTC,2445406.020833,29.6650,-93.4789,0037,10.76,-2.29,11.0000,102.0000
1983-03-12 13:00:00 UTC,2445406.041667,29.6650,-93.4789,0037,11.69,-2.70,12.0000,103.0000
1983-03-12 13:30:00 UTC,2445406.062500,29.6650,-93.4789,0037,11.74,-2.49,12.0000,102.0000
1983-03-12 14:00:00 UTC,2445406.083333,29.6650,-93.4789,0037,10.72,-2.47,11.0000,103.0000
1983-03-12 14:30:00 UTC,2445406.104167,29.6650,-93.4789,0037,8.77,-2.02,9.0000,103.0000
1983-03-12 15:00:00 UTC,2445406.125000,29.6650,-93.4789,0037,6.91,-1.10,7.0000,99.0000
1983-03-12 15:30:00 UTC,2445406.145833,29.6650,-93.4789,0037,4.99,-0.35,5.0000,94.0000
1983-03-12 16:00:00 UTC,2445406.166667,29.6650,-93.4789,0037,1.98,-0.28,2.0000,98.0000
1983-03-12 16:30:00 UTC,2445406.187500,29.6650,-93.4789,0037,0.72,-0.69,1.0000,134.0000
1983-03-12 17:00:00 UTC,2445406.208333,29.6650,-93.4789,0037,0.00,-0.00,0.0000,172.0000
1983-03-12 17:30:00 UTC,2445406.229167,29.6650,-93.4789,0037,-0.00,0.00,0.0000,272.0000
1983-03-12 18:00:00 UTC,2445406.250000,29.6650,-93.4789,0037,-0.00,-0.00,0.0000,220.0000
1983-03-12 18:30:00 UTC,2445406.270833,29.6650,-93.4789,0037,-0.71,-0.71,1.0000,225.0000
1983-03-12 19:00:00 UTC,2445406.291667,29.6650,-93.4789,0037,-2.36,-1.85,3.0000,232.0000
1983-03-12 19:30:00 UTC,2445406.312500,29.6650,-93.4789,0037,-4.49,-2.19,5.0000,244.0000
1983-03-12 20:00:00 UTC,2445406.333333,29.6650,-93.4789,0037,-6.82,-1.57,7.0000,257.0000
1983-03-12 20:30:00 UTC,2445406.354167,29.6650,-93.4789,0037,-8.86,-1.56,9.0000,260.0000
1983-03-12 21:00:00 UTC,2445406.375000,29.6650,-93.4789,0037,-8.80,-1.87,9.0000,258.0000
1983-03-12 21:30:00 UTC,2445406.395833,29.6650,-93.4789,0037,-8.73,-2.18,9.0000,256.0000
1983-03-12 22:00:00 UTC,2445406.416667,29.6650,-93.4789,0037,-8.69,-2.33,9.0000,255.0000
1983-03-12 22:30:00 UTC,2445406.437500,29.6650,-93.4789,0037,-7.69,-2.21,8.0000,254.0000
1983-03-12 23:00:00 UTC,2445406.458333,29.6650,-93.4789,0037,-6.66,-2.16,7.0000,252.0000
1983-03-12 23:30:00 UTC,2445406.479167,29.6650,-93.4789,0037,-5.60,-2.15,6.0000,249.0000
1983-03-13 00:00:00 UTC,2445406.500000,29.6650,-93.4789,0037,-3.78,-1.30,4.0000,251.0000
1983-03-13 00:30:00 UTC,2445406.520833,29.6650,-93.4789,0037,-2.00,-0.10,2.0000,267.0000
1983-03-13 01:00:00 UTC,2445406.541667,29.6650,-93.4789,0037,-0.89,0.45,1.0000,297.0000
1983-03-13 01:30:00 UTC,2445406.562500,29.6650,-93.4789,0037,-0.42,1.96,2.0000,348.0000
1983-03-13 02:00:00 UTC,2445406.583333,29.6650,-93.4789,0037,-0.07,4.00,4.0000,359.0000
1983-03-13 02:30:00 UTC,2445406.604167,29.6650,-93.4789,0037,0.00,5.00,5.0000,0.0000
1983-03-13 03:00:00 UTC,2445406.625000,29.6650,-93.4789,0037,1.25,5.87,6.0000,12.0000
1983-03-13 03:30:00 UTC,2445406.645833,29.6650,-93.4789,0037,2.54,5.44,6.0000,25.0000
1983-03-13 04:00:00 UTC,2445406.666667,29.6650,-93.4789,0037,3.29,6.18,7.0000,28.0000
1983-03-13 04:30:00 UTC,2445406.687500,29.6650,-93.4789,0037,3.39,6.12,7.0000,29.0000
1983-03-13 05:00:00 UTC,2445406.708333,29.6650,-93.4789,0037,4.47,6.63,8.0000,34.0000
1983-03-13 05:30:00 UTC,2445406.729167,29.6650,-93.4789,0037,6.58,6.14,9.0000,47.0000
1983-03-13 06:00:00 UTC,2445406.750000,29.6650,-93.4789,0037,8.22,3.66,9.0000,66.0000
1983-03-13 06:30:00 UTC,2445406.770833,29.6650,-93.4789,0037,8.80,1.87,9.0000,78.0000
1983-03-13 07:00:00 UTC,2445406.791667,29.6650,-93.4789,0037,8.77,2.02,9.0000,77.0000
1983-03-13 07:30:00 UTC,2445406.812500,29.6650,-93.4789,0037,9.90,1.39,10.0000,82.0000
1983-03-13 08:00:00 UTC,2445406.833333,29.6650,-93.4789,0037,12.87,-1.81,13.0000,98.0000
1983-03-13 08:30:00 UTC,2445406.854167,29.6650,-93.4789,0037,14.10,-5.13,15.0000,110.0000
1983-03-13 09:00:00 UTC,2445406.875000,29.6650,-93.4789,0037,11.58,-5.90,13.0000,117.0000
1983-03-13 09:30:00 UTC,2445406.895833,29.6650,-93.4789,0037,11.37,-6.30,13.0000,119.0000
1983-03-13 10:00:00 UTC,2445406.916667,29.6650,-93.4789,0037,14.62,-6.51,16.0000,114.0000
1983-03-13 10:30:00 UTC,2445406.937500,29.6650,-93.4789,0037,17.36,-7.73,19.0000,114.0000
1983-03-13 11:00:00 UTC,2445406.958333,29.6650,-93.4789,0037,16.31,-7.61,18.0000,115.0000
1983-03-13 11:30:00 UTC,2445406.979167,29.6650,-93.4789,0037,15.87,-6.09,17.0000,111.0000
1983-03-13 12:00:00 UTC,2445407.000000,29.6650,-93.4789,0037,19.13,-5.85,20.0000,107.0000
1983-03-13 12:30:00 UTC,2445407.020833,29.6650,-93.4789,0037,20.92,-6.80,22.0000,108.0000
1983-03-13 13:00:00 UTC,2445407.041667,29.6650,-93.4789,0037,19.02,-6.18,20.0000,108.0000
1983-03-13 13:30:00 UTC,2445407.062500,29.6650,-93.4789,0037,17.54,-4.05,18.0000,103.0000
1983-03-13 14:00:00 UTC,2445407.083333,29.6650,-93.4789,0037,16.79,-2.66,17.0000,99.0000
1983-03-13 14:30:00 UTC,2445407.104167,29.6650,-93.4789,0037,14.92,-1.57,15.0000,96.0000
1983-03-13 15:00:00 UTC,2445407.125000,29.6650,-93.4789,0037,13.00,0.23,13.0000,89.0000
1983-03-13 15:30:00 UTC,2445407.145833,29.6650,-93.4789,0037,11.82,2.08,12.0000,80.0000
1983-03-13 16:00:00 UTC,2445407.166667,29.6650,-93.4789,0037,10.76,2.29,11.0000,78.0000
1983-03-13 16:30:00 UTC,2445407.187500,29.6650,-93.4789,0037,9.93,1.22,10.0000,83.0000
1983-03-13 17:00:00 UTC,2445407.208333,29.6650,-93.4789,0037,7.90,1.25,8.0000,81.0000
1983-03-13 17:30:00 UTC,2445407.229167,29.6650,-93.4789,0037,6.82,1.57,7.0000,77.0000
1983-03-13 18:00:00 UTC,2445407.250000,29.6650,-93.4789,0037,5.94,0.84,6.0000,82.0000
1983-03-13 18:30:00 UTC,2445407.270833,29.6650,-93.4789,0037,4.95,-0.70,5.0000,98.0000
1983-03-13 19:00:00 UTC,2445407.291667,29.6650,-93.4789,0037,3.83,-1.17,4.0000,107.0000
1983-03-13 19:30:00 UTC,2445407.312500,29.6650,-93.4789,0037,3.73,-1.43,4.0000,111.0000
1983-03-13 20:00:00 UTC,2445407.333333,29.6650,-93.4789,0037,3.21,-3.83,5.0000,140.0000
1983-03-13 20:30:00 UTC,2445407.354167,29.6650,-93.4789,0037,1.55,-5.80,6.0000,165.0000
1983-03-13 21:00:00 UTC,2445407.375000,29.6650,-93.4789,0037,0.95,-4.91,5.0000,169.0000
1983-03-13 21:30:00 UTC,2445407.395833,29.6650,-93.4789,0037,2.11,-4.53,5.0000,155.0000
1983-03-13 22:00:00 UTC,2445407.416667,29.6650,-93.4789,0037,3.53,-4.85,6.0000,144.0000
1983-03-13 22:30:00 UTC,2445407.437500,29.6650,-93.4789,0037,4.21,-5.59,7.0000,143.0000
1983-03-13 23:00:00 UTC,2445407.458333,29.6650,-93.4789,0037,4.31,-5.52,7.0000,142.0000
1983-03-13 23:30:00 UTC,2445407.479167,29.6650,-93.4789,0037,5.36,-4.50,7.0000,130.0000
1983-03-14 00:00:00 UTC,2445407.500000,29.6650,-93.4789,0037,7.13,-3.63,8.0000,117.0000
1983-03-14 00:30:00 UTC,2445407.520833,29.6650,-93.4789,0037,7.47,-2.87,8.0000,111.0000
1983-03-14 01:00:00 UTC,2445407.541667,29.6650,-93.4789,0037,7.61,-2.47,8.0000,108.0000
1983-03-14 01:30:00 UTC,2445407.562500,29.6650,-93.4789,0037,7.79,-1.80,8.0000,103.0000
1983-03-14 02:00:00 UTC,2445407.583333,29.6650,-93.4789,0037,7.90,-1.25,8.0000,99.0000
1983-03-14 02:30:00 UTC,2445407.604167,29.6650,-93.4789,0037,7.94,-0.97,8.0000,97.0000
1983-03-14 03:00:00 UTC,2445407.625000,29.6650,-93.4789,0037,6.98,-0.49,7.0000,94.0000
1983-03-14 03:30:00 UTC,2445407.645833,29.6650,-93.4789,0037,6.00,0.21,6.0000,88.0000
1983-03-14 04:00:00 UTC,2445407.666667,29.6650,-93.4789,0037,4.97,0.52,5.0000,84.0000
1983-03-14 04:30:00 UTC,2445407.687500,29.6650,-93.4789,0037,4.87,1.12,5.0000,77.0000
1983-03-14 05:00:00 UTC,2445407.708333,29.6650,-93.4789,0037,4.76,1.55,5.0000,72.0000
1983-03-14 05:30:00 UTC,2445407.729167,29.6650,-93.4789,0037,4.83,1.29,5.0000,75.0000
1983-03-14 06:00:00 UTC,2445407.750000,29.6650,-93.4789,0037,4.76,1.55,5.0000,72.0000
1983-03-14 06:30:00 UTC,2445407.770833,29.6650,-93.4789,0037,2.90,0.78,3.0000,75.0000
1983-03-14 07:00:00 UTC,2445407.791667,29.6650,-93.4789,0037,1.84,-0.78,2.0000,113.0000
1983-03-14 07:30:00 UTC,2445407.812500,29.6650,-93.4789,0037,0.21,-0.98,1.0000,168.0000
1983-03-14 08:00:00 UTC,2445407.833333,29.6650,-93.4789,0037,0.07,-2.00,2.0000,178.0000
1983-03-14 08:30:00 UTC,2445407.854167,29.6650,-93.4789,0037,0.67,-2.92,3.0000,167.0000
1983-03-14 09:00:00 UTC,2445407.875000,29.6650,-93.4789,0037,1.50,-3.71,4.0000,158.0000
1983-03-14 09:30:00 UTC,2445407.895833,29.6650,-93.4789,0037,1.94,-3.50,4.0000,151.0000
1983-03-14 10:00:00 UTC,2445407.916667,29.6650,-93.4789,0037,2.52,-3.11,4.0000,141.0000
1983-03-14 10:30:00 UTC,2445407.937500,29.6650,-93.4789,0037,3.21,-3.83,5.0000,140.0000
1983-03-14 11:00:00 UTC,2445407.958333,29.6650,-93.4789,0037,3.27,-5.03,6.0000,147.0000
1983-03-14 11:30:00 UTC,2445407.979167,29.6650,-93.4789,0037,3.71,-5.94,7.0000,148.0000
1983-03-14 12:00:00 UTC,2445408.000000,29.6650,-93.4789,0037,3.91,-5.80,7.0000,146.0000
1983-03-14 12:30:00 UTC,2445408.020833,29.6650,-93.4789,0037,4.41,-5.44,7.0000,141.0000
1983-03-14 13:00:00 UTC,2445408.041667,29.6650,-93.4789,0037,4.77,-5.12,7.0000,137.0000
1983-03-14 13:30:00 UTC,2445408.062500,29.6650,-93.4789,0037,4.86,-5.04,7.0000,136.0000
1983-03-14 14:00:00 UTC,2445408.083333,29.6650,-93.4789,0037,4.46,-4.01,6.0000,132.0000
1983-03-14 14:30:00 UTC,2445408.104167,29.6650,-93.4789,0037,3.53,-1.88,4.0000,118.0000
1983-03-14 15:00:00 UTC,2445408.125000,29.6650,-93.4789,0037,2.90,-0.78,3.0000,105.0000
1983-03-14 15:30:00 UTC,2445408.145833,29.6650,-93.4789,0037,2.94,-0.57,3.0000,101.0000
1983-03-14 16:00:00 UTC,2445408.166667,29.6650,-93.4789,0037,1.96,-0.38,2.0000,101.0000
1983-03-14 16:30:00 UTC,2445408.187500,29.6650,-93.4789,0037,0.88,-0.47,1.0000,118.0000
1983-03-14 17:00:00 UTC,2445408.208333,29.6650,-93.4789,0037,0.48,-0.87,1.0000,151.0000
1983-03-14 17:30:00 UTC,2445408.229167,29.6650,-93.4789,0037,0.72,-1.87,2.0000,159.0000
1983-03-14 18:00:00 UTC,2445408.250000,29.6650,-93.4789,0037,0.24,-1.99,2.0000,173.0000
1983-03-14 18:30:00 UTC,2445408.270833,29.6650,-93.4789,0037,-0.75,-1.85,2.0000,202.0000
1983-03-14 19:00:00 UTC,2445408.291667,29.6650,-93.4789,0037,-2.35,-3.24,4.0000,216.0000
1983-03-14 19:30:00 UTC,2445408.312500,29.6650,-93.4789,0037,-4.09,-4.39,6.0000,223.0000
1983-03-14 20:00:00 UTC,2445408.333333,29.6650,-93.4789,0037,-6.30,-4.93,8.0000,232.0000
1983-03-14 20:30:00 UTC,2445408.354167,29.6650,-93.4789,0037,-7.46,-5.03,9.0000,236.0000
1983-03-14 21:00:00 UTC,2445408.375000,29.6650,-93.4789,0037,-7.19,-5.42,9.0000,233.0000
1983-03-14 21:30:00 UTC,2445408.395833,29.6650,-93.4789,0037,-6.69,-6.02,9.0000,228.0000
1983-03-14 22:00:00 UTC,2445408.416667,29.6650,-93.4789,0037,-7.19,-6.95,10.0000,226.0000
1983-03-14 22:30:00 UTC,2445408.437500,29.6650,-93.4789,0037,-6.82,-7.31,10.0000,223.0000
1983-03-14 23:00:00 UTC,2445408.458333,29.6650,-93.4789,0037,-5.88,-8.09,10.0000,216.0000
1983-03-14 23:30:00 UTC,2445408.479167,29.6650,-93.4789,0037,-6.62,-8.79,11.0000,217.0000
1983-03-15 00:00:00 UTC,2445408.500000,29.6650,-93.4789,0037,-7.36,-8.17,11.0000,222.0000
1983-03-15 00:30:00 UTC,2445408.520833,29.6650,-93.4789,0037,-6.43,-7.66,10.0000,220.0000
1983-03-15 01:00:00 UTC,2445408.541667,29.6650,-93.4789,0037,-5.30,-8.48,10.0000,212.0000
1983-03-15 01:30:00 UTC,2445408.562500,29.6650,-93.4789,0037,-4.85,-8.75,10.0000,209.0000
1983-03-15 02:00:00 UTC,2445408.583333,29.6650,-93.4789,0037,-5.03,-7.46,9.0000,214.0000
1983-03-15 02:30:00 UTC,2445408.604167,29.6650,-93.4789,0037,-5.25,-6.04,8.0000,221.0000
1983-03-15 03:00:00 UTC,2445408.625000,29.6650,-93.4789,0037,-4.17,-4.32,6.0000,224.0000
1983-03-15 03:30:00 UTC,2445408.645833,29.6650,-93.4789,0037,-2.83,-2.83,4.0000,225.0000
1983-03-15 04:00:00 UTC,2445408.666667,29.6650,-93.4789,0037,-1.55,-1.26,2.0000,231.0000
1983-03-15 04:30:00 UTC,2445408.687500,29.6650,-93.4789,0037,-0.94,-0.34,1.0000,250.0000
1983-03-15 05:00:00 UTC,2445408.708333,29.6650,-93.4789,0037,-0.98,0.21,1.0000,282.0000
1983-03-15 05:30:00 UTC,2445408.729167,29.6650,-93.4789,0037,-1.58,1.23,2.0000,308.0000
1983-03-15 06:00:00 UTC,2445408.750000,29.6650,-93.4789,0037,-3.15,3.89,5.0000,321.0000
1983-03-15 06:30:00 UTC,2445408.770833,29.6650,-93.4789,0037,-4.01,4.46,6.0000,318.0000
1983-03-15 07:00:00 UTC,2445408.791667,29.6650,-93.4789,0037,-5.28,4.59,7.0000,311.0000
1983-03-15 07:30:00 UTC,2445408.812500,29.6650,-93.4789,0037,-6.69,6.02,9.0000,312.0000
1983-03-15 08:00:00 UTC,2445408.833333,29.6650,-93.4789,0037,-7.31,6.82,10.0000,313.0000
1983-03-15 08:30:00 UTC,2445408.854167,29.6650,-93.4789,0037,-6.89,5.79,9.0000,310.0000
1983-03-15 09:00:00 UTC,2445408.875000,29.6650,-93.4789,0037,-6.99,5.66,9.0000,309.0000
1983-03-15 09:30:00 UTC,2445408.895833,29.6650,-93.4789,0037,-6.02,6.69,9.0000,318.0000
1983-03-15 10:00:00 UTC,2445408.916667,29.6650,-93.4789,0037,-3.00,7.42,8.0000,338.0000
1983-03-15 10:30:00 UTC,2445408.937500,29.6650,-93.4789,0037,0.10,6.00,6.0000,1.0000
1983-03-15 11:00:00 UTC,2445408.958333,29.6650,-93.4789,0037,1.37,3.76,4.0000,20.0000
1983-03-15 11:30:00 UTC,2445408.979167,29.6650,-93.4789,0037,2.12,3.39,4.0000,32.0000
1983-03-15 12:00:00 UTC,2445409.000000,29.6650,-93.4789,0037,2.93,2.73,4.0000,47.0000
1983-03-15 12:30:00 UTC,2445409.020833,29.6650,-93.4789,0037,3.83,1.17,4.0000,73.0000
1983-03-15 13:00:00 UTC,2445409.041667,29.6650,-93.4789,0037,5.00,-0.17,5.0000,92.0000
1983-03-15 13:30:00 UTC,2445409.062500,29.6650,-93.4789,0037,4.96,-0.61,5.0000,97.0000
1983-03-15 14:00:00 UTC,2445409.083333,29.6650,-93.4789,0037,4.87,-1.12,5.0000,103.0000
1983-03-15 14:30:00 UTC,2445409.104167,29.6650,-93.4789,0037,4.83,-1.29,5.0000,105.0000
1983-03-15 15:00:00 UTC,2445409.125000,29.6650,-93.4789,0037,4.78,-1.46,5.0000,107.0000
1983-03-15 15:30:00 UTC,2445409.145833,29.6650,-93.4789,0037,3.56,-1.82,4.0000,117.0000
1983-03-15 16:00:00 UTC,2445409.166667,29.6650,-93.4789,0037,3.24,-2.35,4.0000,126.0000
1983-03-15 16:30:00 UTC,2445409.187500,29.6650,-93.4789,0037,2.12,-2.12,3.0000,135.0000
1983-03-15 17:00:00 UTC,2445409.208333,29.6650,-93.4789,0037,1.39,-1.44,2.0000,136.0000
1983-03-15 17:30:00 UTC,2445409.229167,29.6650,-93.4789,0037,1.80,-0.88,2.0000,116.0000
1983-03-15 18:00:00 UTC,2445409.250000,29.6650,-93.4789,0037,1.41,-1.41,2.0000,135.0000
1983-03-15 18:30:00 UTC,2445409.270833,29.6650,-93.4789,0037,0.83,-3.91,4.0000,168.0000
1983-03-15 19:00:00 UTC,2445409.291667,29.6650,-93.4789,0037,-0.83,-3.91,4.0000,192.0000
1983-03-15 19:30:00 UTC,2445409.312500,29.6650,-93.4789,0037,-2.42,-4.37,5.0000,209.0000
1983-03-15 20:00:00 UTC,2445409.333333,29.6650,-93.4789,0037,-3.53,-4.85,6.0000,216.0000
1983-03-15 20:30:00 UTC,2445409.354167,29.6650,-93.4789,0037,-4.93,-6.30,8.0000,218.0000
1983-03-15 21:00:00 UTC,2445409.375000,29.6650,-93.4789,0037,-5.79,-6.89,9.0000,220.0000
1983-03-15 21:30:00 UTC,2445409.395833,29.6650,-93.4789,0037,-5.90,-6.79,9.0000,221.0000
1983-03-15 22:00:00 UTC,2445409.416667,29.6650,-93.4789,0037,-6.82,-7.31,10.0000,223.0000
1983-03-15 22:30:00 UTC,2445409.437500,29.6650,-93.4789,0037,-8.04,-7.50,11.0000,227.0000
1983-03-15 23:00:00 UTC,2445409.458333,29.6650,-93.4789,0037,-9.19,-7.71,12.0000,230.0000
1983-03-15 23:30:00 UTC,2445409.479167,29.6650,-93.4789,0037,-7.78,-7.78,11.0000,225.0000
1983-03-16 00:00:00 UTC,2445409.500000,29.6650,-93.4789,0037,-6.15,-9.12,11.0000,214.0000
1983-03-16 00:30:00 UTC,2445409.520833,29.6650,-93.4789,0037,-4.99,-9.80,11.0000,207.0000
1983-03-16 01:00:00 UTC,2445409.541667,29.6650,-93.4789,0037,-5.67,-9.43,11.0000,211.0000
1983-03-16 01:30:00 UTC,2445409.562500,29.6650,-93.4789,0037,-5.90,-6.79,9.0000,221.0000
1983-03-16 02:00:00 UTC,2445409.583333,29.6650,-93.4789,0037,-4.53,-3.94,6.0000,229.0000
1983-03-16 02:30:00 UTC,2445409.604167,29.6650,-93.4789,0037,-3.06,-2.57,4.0000,230.0000
1983-03-16 03:00:00 UTC,2445409.625000,29.6650,-93.4789,0037,-1.93,-2.30,3.0000,220.0000
1983-03-16 03:30:00 UTC,2445409.645833,29.6650,-93.4789,0037,-0.78,-0.63,1.0000,231.0000
1983-03-16 04:00:00 UTC,2445409.666667,29.6650,-93.4789,0037,0.24,1.99,2.0000,7.0000
1983-03-16 04:30:00 UTC,2445409.687500,29.6650,-93.4789,0037,1.81,2.40,3.0000,37.0000
1983-03-16 05:00:00 UTC,2445409.708333,29.6650,-93.4789,0037,2.90,0.78,3.0000,75.0000
1983-03-16 05:30:00 UTC,2445409.729167,29.6650,-93.4789,0037,2.93,0.62,3.0000,78.0000
1983-03-16 06:00:00 UTC,2445409.750000,29.6650,-93.4789,0037,2.73,2.93,4.0000,43.0000
1983-03-16 06:30:00 UTC,2445409.770833,29.6650,-93.4789,0037,2.12,3.39,4.0000,32.0000
1983-03-16 07:00:00 UTC,2445409.791667,29.6650,-93.4789,0037,1.17,3.83,4.0000,17.0000
1983-03-16 07:30:00 UTC,2445409.812500,29.6650,-93.4789,0037,-1.04,4.89,5.0000,348.0000
1983-03-16 08:00:00 UTC,2445409.833333,29.6650,-93.4789,0037,-2.54,5.44,6.0000,335.0000
1983-03-16 08:30:00 UTC,2445409.854167,29.6650,-93.4789,0037,-2.85,6.39,7.0000,336.0000
1983-03-16 09:00:00 UTC,2445409.875000,29.6650,-93.4789,0037,-0.73,5.96,6.0000,353.0000
1983-03-16 09:30:00 UTC,2445409.895833,29.6650,-93.4789,0037,2.87,4.10,5.0000,35.0000
1983-03-16 10:00:00 UTC,2445409.916667,29.6650,-93.4789,0037,5.89,1.14,6.0000,79.0000
1983-03-16 10:30:00 UTC,2445409.937500,29.6650,-93.4789,0037,6.06,-3.50,7.0000,120.0000
1983-03-16 11:00:00 UTC,2445409.958333,29.6650,-93.4789,0037,3.71,-5.94,7.0000,148.0000
1983-03-16 11:30:00 UTC,2445409.979167,29.6650,-93.4789,0037,0.93,-2.85,3.0000,162.0000
1983-03-16 12:00:00 UTC,2445410.000000,29.6650,-93.4789,0037,1.75,-0.97,2.0000,119.0000
1983-03-16 12:30:00 UTC,2445410.020833,29.6650,-93.4789,0037,5.00,0.09,5.0000,89.0000
1983-03-16 13:00:00 UTC,2445410.041667,29.6650,-93.4789,0037,8.95,0.94,9.0000,84.0000
1983-03-16 13:30:00 UTC,2445410.062500,29.6650,-93.4789,0037,12.95,-1.13,13.0000,95.0000
1983-03-16 14:00:00 UTC,2445410.083333,29.6650,-93.4789,0037,12.93,-1.36,13.0000,96.0000
1983-03-16 14:30:00 UTC,2445410.104167,29.6650,-93.4789,0037,12.84,2.03,13.0000,81.0000
1983-03-16 15:00:00 UTC,2445410.125000,29.6650,-93.4789,0037,12.72,2.70,13.0000,78.0000
1983-03-16 15:30:00 UTC,2445410.145833,29.6650,-93.4789,0037,10.89,1.53,11.0000,82.0000
1983-03-16 16:00:00 UTC,2445410.166667,29.6650,-93.4789,0037,8.22,3.66,9.0000,66.0000
1983-03-16 16:30:00 UTC,2445410.187500,29.6650,-93.4789,0037,6.69,6.02,9.0000,48.0000
1983-03-16 17:00:00 UTC,2445410.208333,29.6650,-93.4789,0037,5.16,7.37,9.0000,35.0000
1983-03-16 17:30:00 UTC,2445410.229167,29.6650,-93.4789,0037,4.64,7.71,9.0000,31.0000
1983-03-16 18:00:00 UTC,2445410.250000,29.6650,-93.4789,0037,5.16,7.37,9.0000,35.0000
1983-03-16 18:30:00 UTC,2445410.270833,29.6650,-93.4789,0037,6.89,5.79,9.0000,50.0000
1983-03-16 19:00:00 UTC,2445410.291667,29.6650,-93.4789,0037,11.28,4.10,12.0000,70.0000
1983-03-16 19:30:00 UTC,2445410.312500,29.6650,-93.4789,0037,14.77,2.60,15.0000,80.0000
1983-03-16 20:00:00 UTC,2445410.333333,29.6650,-93.4789,0037,15.96,-1.12,16.0000,94.0000
1983-03-16 20:30:00 UTC,2445410.354167,29.6650,-93.4789,0037,12.36,-4.02,13.0000,108.0000
1983-03-16 21:00:00 UTC,2445410.375000,29.6650,-93.4789,0037,5.85,-1.35,6.0000,103.0000
1983-03-16 21:30:00 UTC,2445410.395833,29.6650,-93.4789,0037,0.93,2.85,3.0000,18.0000
1983-03-16 22:00:00 UTC,2445410.416667,29.6650,-93.4789,0037,1.34,6.87,7.0000,11.0000
1983-03-16 22:30:00 UTC,2445410.437500,29.6650,-93.4789,0037,8.49,8.49,12.0000,45.0000
1983-03-16 23:00:00 UTC,2445410.458333,29.6650,-93.4789,0037,17.78,2.82,18.0000,81.0000
1983-03-16 23:30:00 UTC,2445410.479167,29.6650,-93.4789,0037,21.67,-3.82,22.0000,100.0000
1983-03-17 00:00:00 UTC,2445410.500000,29.6650,-93.4789,0037,17.74,-6.81,19.0000,111.0000
1983-03-17 00:30:00 UTC,2445410.520833,29.6650,-93.4789,0037,12.86,-7.73,15.0000,121.0000
1983-03-17 01:00:00 UTC,2445410.541667,29.6650,-93.4789,0037,9.01,-6.31,11.0000,125.0000
1983-03-17 01:30:00 UTC,2445410.562500,29.6650,-93.4789,0037,7.13,-3.63,8.0000,117.0000
1983-03-17 02:00:00 UTC,2445410.583333,29.6650,-93.4789,0037,7.90,-1.25,8.0000,99.0000
1983-03-17 02:30:00 UTC,2445410.604167,29.6650,-93.4789,0037,9.99,0.52,10.0000,87.0000
1983-03-17 03:00:00 UTC,2445410.625000,29.6650,-93.4789,0037,11.98,0.63,12.0000,87.0000
1983-03-17 03:30:00 UTC,2445410.645833,29.6650,-93.4789,0037,12.00,0.00,12.0000,90.0000
1983-03-17 04:00:00 UTC,2445410.666667,29.6650,-93.4789,0037,10.99,0.38,11.0000,88.0000
1983-03-17 04:30:00 UTC,2445410.687500,29.6650,-93.4789,0037,8.95,0.94,9.0000,84.0000
1983-03-17 05:00:00 UTC,2445410.708333,29.6650,-93.4789,0037,9.85,1.74,10.0000,80.0000
1983-03-17 05:30:00 UTC,2445410.729167,29.6650,-93.4789,0037,9.85,1.74,10.0000,80.0000
1983-03-17 06:00:00 UTC,2445410.750000,29.6650,-93.4789,0037,8.73,2.18,9.0000,76.0000
1983-03-17 06:30:00 UTC,2445410.770833,29.6650,-93.4789,0037,5.80,3.91,7.0000,56.0000
1983-03-17 07:00:00 UTC,2445410.791667,29.6650,-93.4789,0037,1.95,5.67,6.0000,19.0000
1983-03-17 07:30:00 UTC,2445410.812500,29.6650,-93.4789,0037,-3.07,6.29,7.0000,334.0000
1983-03-17 08:00:00 UTC,2445410.833333,29.6650,-93.4789,0037,-6.29,7.77,10.0000,321.0000
1983-03-17 08:30:00 UTC,2445410.854167,29.6650,-93.4789,0037,-5.83,9.33,11.0000,328.0000
1983-03-17 09:00:00 UTC,2445410.875000,29.6650,-93.4789,0037,-2.93,8.51,9.0000,341.0000